This is the latest recevied weather packets stored in our database for station/object KA5FVT. If no packets are shown the sender has not sent any weather packets the latest 10 day(s).
| Time | Temp. | Humidity | Pressure | Rain* | Wind** | Luminosity | Snow |
|---|---|---|---|---|---|---|---|
| 1777729766 | 14.44° C | 88% | 1019.8 hPa | 0 mm | - | - | - |
| 1777728866 | 13.89° C | 90% | 1019.6 hPa | 0 mm | - | - | - |
| 1777726466 | 12.78° C | 92% | 1019 hPa | 0 mm | - | - | - |
| 1777726170 | 12.22° C | 92% | 1018.9 hPa | 0 mm | - | - | - |
| 1777725867 | 12.22° C | 92% | 1018.7 hPa | 0 mm | - | - | - |
| 1777724666 | 12.22° C | 93% | 1018.6 hPa | 0 mm | - | - | - |
| 1777724069 | 12.22° C | 93% | 1018.4 hPa | 0 mm | - | - | - |
| 1777722866 | 12.22° C | 94% | 1018.1 hPa | 0 mm | - | - | - |
| 1777722566 | 12.22° C | 94% | 1018 hPa | 0 mm | - | - | - |
| 1777721369 | 11.67° C | 94% | 1017.9 hPa | 0 mm | - | - | - |
| 1777718966 | 12.22° C | 93% | 1017.5 hPa | 0 mm | - | - | - |
| 1777717766 | 12.22° C | 93% | 1017.4 hPa | 0 mm | - | - | - |
| 1777716566 | 12.22° C | 93% | 1016.9 hPa | 0 mm | - | - | - |
| 1777715366 | 12.22° C | 93% | 1016.6 hPa | 0 mm | - | - | - |
| 1777711767 | 12.78° C | 93% | 1015.7 hPa | 0 mm | - | - | - |
| 1777709966 | 12.78° C | 93% | 1015.8 hPa | 0 mm | - | - | - |
| 1777709666 | 12.78° C | 93% | 1015.7 hPa | 0 mm | - | - | - |
| 1777709366 | 12.78° C | 93% | 1015.8 hPa | 0 mm | - | - | - |
| 1777707566 | 12.78° C | 94% | 1015.6 hPa | 0 mm | - | - | - |
| 1777705767 | 12.78° C | 94% | 1016 hPa | 0 mm | - | - | - |
| 1777705466 | 12.78° C | 95% | 1016 hPa | 0 mm | - | - | - |
| 1777703666 | 12.78° C | 95% | 1015.6 hPa | 0 mm | - | - | - |
| 1777702766 | 12.78° C | 95% | 1015.6 hPa | 0 mm | - | - | - |
| 1777702466 | 13.33° C | 95% | 1015.5 hPa | 0 mm | - | - | - |
| 1777702166 | 13.33° C | 95% | 1015.5 hPa | 0 mm | - | - | - |
* Rain latest hour (hover to see other rain measurements)
** Current wind speed in m/s (hover to see current wind gust speed)